VA5EVR-13 Weather Reports


Display with metric or nautical units.
time (UTC)temp
F
wind
direction
speed
MPH
gust
MPH
rain 1hr
in
rain 24hr
in
rain mn
in
humidity
%
barometer
mb
20260510132012 49 158 6.0 6.0 0.00 0.00 0.00 53 88.8
20260510131012 46 158 4.0 4.0 0.00 0.00 0.00 54 88.8
20260510130012 43 180 5.0 5.0 0.00 0.00 0.00 57 88.8
20260510125011 39 180 4.0 4.0 0.00 0.00 0.00 59 88.8
20260510124012 36 180 3.0 3.0 0.00 0.00 0.00 61 88.8
20260510123011 34 180 4.0 4.0 0.00 0.00 0.00 62 88.8
20260510122011 32 202 4.0 4.0 0.00 0.00 0.00 65 88.8
20260510121012 30 202 4.0 4.0 0.00 0.00 0.00 67 88.8
20260510120011 29 202 3.0 3.0 0.00 0.00 0.00 71 88.8
20260510115012 29 202 3.0 3.0 0.00 0.00 0.00 72 88.8
20260510114012 29 202 3.0 3.0 0.00 0.00 0.00 74 88.8
20260510113012 30 202 2.0 2.0 0.00 0.00 0.00 75 88.8
20260510111011 31 202 5.0 5.0 0.00 0.00 0.00 73 88.8
20260510110011 31 225 5.0 5.0 0.00 0.00 0.00 73 88.8
20260510104012 32 180 4.0 4.0 0.00 0.00 0.00 72 88.8
20260510103012 32 202 4.0 4.0 0.00 0.00 0.00 72 88.8
20260510102012 32 202 4.0 4.0 0.00 0.00 0.00 72 88.8
20260510101011 32 202 4.0 4.0 0.00 0.00 0.00 70 88.8
20260510100012 32 180 5.0 5.0 0.00 0.00 0.00 70 88.8
20260510094011 33 180 4.0 4.0 0.00 0.00 0.00 68 88.8
20260510093012 33 180 4.0 4.0 0.00 0.00 0.00 68 88.8
20260510092011 33 180 5.0 5.0 0.00 0.00 0.00 67 88.8
20260510091011 33 158 6.0 6.0 0.00 0.00 0.00 67 88.8
20260510085011 33 180 6.0 6.0 0.00 0.00 0.00 67 88.8
20260510084012 33 180 6.0 6.0 0.00 0.00 0.00 67 88.8
20260510082011 32 158 6.0 6.0 0.00 0.00 0.00 67 88.8
20260510081011 32 158 5.0 5.0 0.00 0.00 0.00 68 88.8
20260510080012 31 158 5.0 5.0 0.00 0.00 0.00 67 88.8
20260510075011 31 158 4.0 4.0 0.00 0.00 0.00 67 88.8
20260510073012 31 180 4.0 4.0 0.00 0.00 0.00 66 88.8
20260510072011 31 180 4.0 4.0 0.00 0.00 0.00 66 88.8
20260510071011 31 158 4.0 4.0 0.00 0.00 0.00 66 88.8
20260510070012 31 180 3.0 3.0 0.00 0.00 0.00 65 88.8
20260510065012 32 158 4.0 4.0 0.00 0.00 0.00 65 88.8
20260510064011 33 158 3.0 3.0 0.00 0.00 0.00 64 88.8
20260510063013 34 135 3.0 3.0 0.00 0.00 0.00 63 88.8
20260510062012 36 112 5.0 5.0 0.00 0.00 0.00 63 88.8
20260510061011 36 112 4.0 4.0 0.00 0.00 0.00 61 88.8
20260510060012 36 112 5.0 5.0 0.00 0.00 0.00 61 88.8
20260510055011 37 112 4.0 4.0 0.00 0.00 0.00 60 88.8
20260510054011 36 112 5.0 5.0 0.00 0.00 0.00 60 88.8
20260510053012 36 112 6.0 6.0 0.00 0.00 0.00 60 88.8
20260510052011 34 90 6.0 6.0 0.00 0.00 0.00 61 88.8
20260510050012 31 45 4.0 4.0 0.00 0.00 0.00 63 88.8
20260510045011 31 22 0.0 0.0 0.00 0.00 0.00 59 88.8
20260510044011 31 0 0.0 0.0 0.00 0.00 0.00 58 88.8
20260510043012 32 0 0.0 0.0 0.00 0.00 0.00 58 88.8
20260510042012 32 22 0.0 0.0 0.00 0.00 0.00 58 88.8
20260510041011 33 22 0.0 0.0 0.00 0.00 0.00 56 88.8
20260510040012 34 22 0.0 0.0 0.00 0.00 0.00 56 88.8
20260510035012 34 45 0.0 0.0 0.00 0.00 0.00 56 88.8
20260510034011 35 45 0.0 0.0 0.00 0.00 0.00 56 88.8
20260510033012 36 45 0.0 0.0 0.00 0.00 0.00 55 88.8
20260510032012 38 45 0.0 0.0 0.00 0.00 0.00 55 88.8
20260510031011 40 45 0.0 0.0 0.00 0.00 0.00 53 88.8
20260510030012 43 45 0.0 0.0 0.00 0.00 0.00 52 88.8
20260510024012 47 45 5.0 5.0 0.00 0.00 0.00 49 88.8
20260510023012 49 22 6.0 6.0 0.00 0.00 0.00 46 88.8
20260510022012 50 22 6.0 6.0 0.00 0.00 0.00 45 88.8
20260510021011 51 0 5.0 5.0 0.00 0.00 0.00 44 88.8
20260510020011 53 22 4.0 4.0 0.00 0.00 0.00 42 88.8
20260510015012 54 338 4.0 4.0 0.00 0.00 0.00 40 88.8
20260510014011 54 0 5.0 5.0 0.00 0.00 0.00 40 88.8
20260510013012 55 315 6.0 6.0 0.00 0.00 0.00 40 88.8
20260510012012 57 338 9.0 9.0 0.00 0.00 0.00 40 88.8
20260510011011 58 0 11.0 11.0 0.00 0.00 0.00 39 88.8
20260510010011 58 292 5.0 5.0 0.00 0.00 0.00 39 88.8
20260510005012 59 22 10.0 10.0 0.00 0.00 0.00 39 88.8
20260510004011 58 0 8.0 8.0 0.00 0.00 0.00 39 88.8
20260510003012 58 22 7.0 7.0 0.00 0.00 0.00 39 88.8
20260510002012 59 0 11.0 11.0 0.00 0.00 0.00 39 88.8
20260510001011 59 0 14.0 14.0 0.00 0.00 0.00 37 88.8
20260510000011 58 338 9.0 9.0 0.00 0.00 0.00 37 88.8
20260509235012 57 292 12.0 12.0 0.00 0.00 0.00 38 88.8
20260509234012 56 22 16.0 16.0 0.00 0.00 0.00 39 88.8
20260509232012 57 22 11.0 11.0 0.00 0.00 0.00 38 88.8
20260509231012 57 338 7.0 7.0 0.00 0.00 0.00 38 88.8
20260509225011 57 270 5.0 5.0 0.00 0.00 0.00 37 88.8
20260509224012 56 315 10.0 10.0 0.00 0.00 0.00 37 88.8
20260509223011 56 0 11.0 11.0 0.00 0.00 0.00 38 88.8
20260509221012 57 22 5.0 5.0 0.00 0.00 0.00 37 88.8
20260509220011 57 22 19.0 19.0 0.00 0.00 0.00 37 88.8
20260509215012 58 338 7.0 7.0 0.00 0.00 0.00 36 88.8
20260509214012 58 292 5.0 5.0 0.00 0.00 0.00 37 88.8
20260509213011 57 270 9.0 9.0 0.00 0.00 0.00 36 88.8
20260509212011 57 292 19.0 19.0 0.00 0.00 0.00 37 88.8
20260509211011 57 0 9.0 9.0 0.00 0.00 0.00 37 88.8
20260509210011 56 315 18.0 18.0 0.00 0.00 0.00 38 88.8
20260509205011 56 0 4.0 4.0 0.00 0.00 0.00 38 88.8
20260509203011 56 292 11.0 11.0 0.00 0.00 0.00 38 88.8
20260509202012 56 22 8.0 8.0 0.00 0.00 0.00 39 88.8
20260509201011 56 338 14.0 14.0 0.00 0.00 0.00 39 88.8
20260509200012 56 0 14.0 14.0 0.00 0.00 0.00 40 88.8
20260509195011 56 0 17.0 17.0 0.00 0.00 0.00 38 88.8
20260509194012 55 22 16.0 16.0 0.00 0.00 0.00 39 88.8
20260509193012 55 45 17.0 17.0 0.00 0.00 0.00 39 88.8
20260509192011 55 22 15.0 15.0 0.00 0.00 0.00 40 88.8
20260509191012 55 22 13.0 13.0 0.00 0.00 0.00 39 88.8
20260509190011 54 315 8.0 8.0 0.00 0.00 0.00 39 88.8
20260509184012 53 22 15.0 15.0 0.00 0.00 0.00 40 88.8
20260509183012 53 22 16.0 16.0 0.00 0.00 0.00 39 88.8
20260509182011 53 22 17.0 17.0 0.00 0.00 0.00 40 88.8
20260509181012 53 0 13.0 13.0 0.00 0.00 0.00 40 88.8
20260509180012 53 22 4.0 4.0 0.00 0.00 0.00 41 88.8
20260509175012 52 338 14.0 14.0 0.00 0.00 0.00 41 88.8
20260509174012 51 292 11.0 11.0 0.00 0.00 0.00 40 88.8
20260509173012 51 22 9.0 9.0 0.00 0.00 0.00 40 88.8
20260509171011 51 22 14.0 14.0 0.00 0.00 0.00 40 88.8
20260509170012 50 22 7.0 7.0 0.00 0.00 0.00 41 88.8
20260509165011 50 45 15.0 15.0 0.00 0.00 0.00 40 88.8
20260509164011 50 45 10.0 10.0 0.00 0.00 0.00 41 88.8
20260509163011 50 22 19.0 19.0 0.00 0.00 0.00 42 88.8
20260509161012 49 45 6.0 6.0 0.00 0.00 0.00 41 88.8
20260509160011 49 315 9.0 9.0 0.00 0.00 0.00 41 88.8
20260509155012 50 338 11.0 11.0 0.00 0.00 0.00 44 88.8
20260509154013 50 338 10.0 10.0 0.00 0.00 0.00 45 88.8
20260509153012 51 0 9.0 9.0 0.00 0.00 0.00 46 88.8
20260509152012 52 0 10.0 10.0 0.00 0.00 0.00 48 88.8
20260509151012 53 338 9.0 9.0 0.00 0.00 0.00 46 88.8
20260509145011 52 45 7.0 7.0 0.00 0.00 0.00 46 88.8
20260509144012 52 22 6.0 6.0 0.00 0.00 0.00 48 88.8
20260509143011 52 315 6.0 6.0 0.00 0.00 0.00 49 88.8
20260509142012 51 22 7.0 7.0 0.00 0.00 0.00 49 88.8
20260509140012 49 22 5.0 5.0 0.00 0.00 0.00 51 88.8
20260509135011 49 22 5.0 5.0 0.00 0.00 0.00 50 88.8
20260509134012 47 22 4.0 4.0 0.00 0.00 0.00 53 88.8